Regional Weather Roundup
Issued by NWS

Home | Current Version | Previous Version | Graphics & Text | Print | Product List | Glossary On
Versions: 1 2 3 4 5 6 7 8 9 10 11 12 13 14 15 16 17 18 19 20 21 22 23 24 25 26 27 28 29 30 31 32 33 34 35 36 37 38 39 40 41 42 43 44 45 46 47 48 49 50
000
ASUS43 KBIS 241810
RWRND

NORTH DAKOTA REGIONAL WEATHER ROUNDUP
NATIONAL WEATHER SERVICE BISMARCK ND
100 PM CDT MON JUL 24 2017

NOTE: "FAIR" INDICATES FEW OR NO CLOUDS BELOW 12,000 FEET WITH NO
SIGNIFICANT WEATHER AND/OR OBSTRUCTIONS TO VISIBILITY.


NDZ001>003-009>011-017-241900-
NORTHWEST NORTH DAKOTA

CITY           SKY/WX    TMP DP  RH WIND       PRES   REMARKS
WILLISTON      SUNNY     92  52  25 SW12G18   29.76S
6HR MIN TEMP:  73; 6HR MAX TEMP:  92;

MINOT          SUNNY     91  56  30 S21G30    29.77R
MINOT AFB      SUNNY     90  57  32 S18       29.75S
$$

NDZ018>021-031>035-040>046-241900-
SOUTHWEST NORTH DAKOTA

CITY           SKY/WX    TMP DP  RH WIND       PRES   REMARKS
BISMARCK       CLOUDY    81  62  52 S9        29.85F
6HR MIN TEMP:  65; 6HR MAX TEMP:  81;

DICKINSON      SUNNY     90  58  33 S13G23    29.81S
GARRISON         N/A     86  60  41 S15       29.80S
6HR MIN TEMP:  66; 6HR MAX TEMP:  86;

HETTINGER ARPT SUNNY     87  58  37 SE9G20    29.86F
$$

NDZ004>008-012>016-024-026-027-054-241900-
NORTHEAST NORTH DAKOTA

CITY           SKY/WX    TMP DP  RH WIND       PRES   REMARKS
GRAND FORKS    CLOUDY    77  65  66 SE17      29.91F
GRND FRKS AFB  CLOUDY    76  64  65 S14       29.91F
DEVILS LAKE    CLOUDY    79  62  56 S15G25    29.87F
$$

NDZ022-023-025-028>030-036>039-047>053-241900-
SOUTHEAST NORTH DAKOTA

CITY           SKY/WX    TMP DP  RH WIND       PRES   REMARKS
FARGO          MOSUNNY   79  63  57 S14       29.94
JAMESTOWN      CLOUDY    79  62  56 S15       29.90F
$$





USA.gov is the U.S. government's official web portal to all federal, state and local government web resources and services.